Location: ??
(35.4032°N, 139.3073°E)
Time: 11:03:24
(UTC+00:00)

Cosmos 2278 Rocket - Pass Details

Date: 13 April 2024
Orbit: 839 x 846 km, 71.0° (Epoch: 21 May)

Event Time Altitude Azimuth Distance (km) Brightness Sun altitude
Rises 17:28:12 0° 346° (NNW) 3,413 5.7 -30.6°
Reaches altitude 10° 17:30:49 10° 354° (N) 2,474 5.0 -30.2°
Maximum altitude 17:36:07 40° 63° (ENE) 1,233 3.4 -29.4°
Drops below altitude 10° 17:41:24 10° 132° (SE) 2,459 4.7 -28.6°
Sets 17:43:59 0° 140° (SE) 3,390 5.4 -28.1°
